Tracking 18030 objects as of 29-March-2017
HD Live streaming from Space Station
objects crossing your sky now

DSCS 2-15

Track DSCS 2-15 now!
DSCS 2-15 is classified as:


NORAD ID: 13636
Int'l Code: 1982-106A
Perigee: 37,304.6 km
Apogee: 37,319.3 km
Inclination: 16.2 °
Period: 1,514.4 minutes
Semi major axis: 43682 km
RCS: 4.13 m2 (large)
Launch date: October 30, 1982
Source: United States (US)
Launch site: AIR FORCE EASTERN TEST RANGE (AFETR)
Your satellite tracking list
Your tracking list is empty





NASA's NSSDC Master Catalog

Two Line Element Set (TLE):
1 13636U 82106A   17084.78375310 -.00000105 +00000-0 +00000-0 0  9997
2 13636 016.2372 353.5010 0001678 235.8172 338.7033 00.95089941072077
Source of the keplerian elements: AFSPC